PAY3236 SBVT-SAZS

Flight info

Callsign PAY3236
Flight time N/A
Altitude 36000
Route USVAG UN401 MOLSU UN857 FEITO/N0484F360 UN857 NELOX UZ53 UMRUD UN741 EZE UT654 ORERA ORERA2Q
Aircraft A346/H-SDE2E3FGHIJ3J4J5M1RWXYZ/LB1D1

Departure

Time 2026-04-29 15:48
Airport Eurico de Aguiar Salles International Airport (SBVT)

Arrival

Time N/A
Airport Teniente Luis Candelaria International Airport (SAZS)
Time Latitude Longitude Altitude Speed Heading
2026-04-29 15:38 -20.25813 -40.28902 26 ft 0 kts 301°
2026-04-29 15:41 -20.25813 -40.28903 26 ft 0 kts 300°
2026-04-29 15:42 -20.25812 -40.28914 26 ft 2 kts 263°
2026-04-29 15:42 -20.25830 -40.28929 27 ft 5 kts 204°
2026-04-29 15:42 -20.25882 -40.28953 26 ft 10 kts 201°
2026-04-29 15:42 -20.25960 -40.28985 26 ft 13 kts 200°
2026-04-29 15:43 -20.26057 -40.29030 26 ft 15 kts 207°
2026-04-29 15:43 -20.26157 -40.29095 27 ft 17 kts 211°
2026-04-29 15:43 -20.26270 -40.29163 27 ft 18 kts 207°
2026-04-29 15:43 -20.26361 -40.29208 27 ft 11 kts 200°
2026-04-29 15:44 -20.26428 -40.29230 27 ft 8 kts 194°
2026-04-29 15:44 -20.26485 -40.29244 27 ft 7 kts 192°
2026-04-29 15:44 -20.26529 -40.29257 27 ft 5 kts 202°
2026-04-29 15:44 -20.26561 -40.29272 28 ft 4 kts 201°
2026-04-29 15:45 -20.26590 -40.29273 28 ft 3 kts 158°
2026-04-29 15:45 -20.26606 -40.29264 28 ft 1 kts 139°
2026-04-29 15:45 -20.26618 -40.29245 28 ft 4 kts 120°
2026-04-29 15:45 -20.26619 -40.29223 28 ft 2 kts 69°
2026-04-29 15:46 -20.26610 -40.29213 28 ft 0 kts 34°
2026-04-29 15:46 -20.26619 -40.29220 28 ft 5 kts 36°
2026-04-29 15:46 -20.26664 -40.29252 28 ft 2 kts 33°
2026-04-29 15:46 -20.26665 -40.29252 28 ft 0 kts 33°
2026-04-29 15:47 -20.26651 -40.29242 28 ft 13 kts 33°
2026-04-29 15:47 -20.26362 -40.29050 27 ft 89 kts 31°
2026-04-29 15:47 -20.25582 -40.28540 27 ft 162 kts 32°
2026-04-29 15:48 -20.24571 -40.27861 652 ft 168 kts 32°
2026-04-29 15:48 -20.23537 -40.27361 1425 ft 167 kts 23°
2026-04-29 15:48 -20.22477 -40.26820 2111 ft 175 kts 28°
2026-04-29 15:48 -20.21348 -40.26197 2675 ft 192 kts 18°
2026-04-29 15:49 -20.19996 -40.26319 3084 ft 205 kts 333°
2026-04-29 15:49 -20.19104 -40.27493 3527 ft 218 kts 289°
2026-04-29 15:49 -20.19164 -40.29125 4000 ft 232 kts 250°
2026-04-29 15:49 -20.20196 -40.30512 4468 ft 244 kts 224°
2026-04-29 15:50 -20.21492 -40.31775 4895 ft 261 kts 223°
2026-04-29 15:50 -20.22870 -40.33139 5307 ft 280 kts 224°
2026-04-29 15:50 -20.24314 -40.34602 5920 ft 289 kts 224°
2026-04-29 15:50 -20.25757 -40.36084 6700 ft 292 kts 224°
2026-04-29 15:51 -20.27233 -40.37614 7496 ft 295 kts 225°
2026-04-29 15:51 -20.28703 -40.39144 8234 ft 299 kts 225°
2026-04-29 15:51 -20.30202 -40.40704 8973 ft 302 kts 223°
2026-04-29 15:51 -20.31812 -40.42166 9664 ft 305 kts 219°
2026-04-29 15:52 -20.33478 -40.43568 10335 ft 309 kts 219°
2026-04-29 15:52 -20.35203 -40.45015 10766 ft 322 kts 219°
2026-04-29 15:52 -20.37055 -40.46586 11075 ft 339 kts 219°
2026-04-29 15:52 -20.38924 -40.48187 11350 ft 356 kts 219°
2026-04-29 15:53 -20.40909 -40.49897 11625 ft 372 kts 219°
2026-04-29 15:53 -20.42974 -40.51684 11893 ft 388 kts 219°
2026-04-29 15:53 -20.45115 -40.53540 12259 ft 400 kts 219°
2026-04-29 15:53 -20.47295 -40.55432 12852 ft 405 kts 219°
2026-04-29 15:54 -20.49484 -40.57334 13474 ft 408 kts 220°
2026-04-29 15:54 -20.51697 -40.59257 14094 ft 410 kts 220°
2026-04-29 15:54 -20.53915 -40.61186 14706 ft 413 kts 220°
2026-04-29 15:54 -20.56159 -40.63141 15309 ft 415 kts 220°
2026-04-29 15:55 -20.58405 -40.65097 15883 ft 417 kts 220°
2026-04-29 15:55 -20.60690 -40.67090 16461 ft 419 kts 220°
2026-04-29 15:55 -20.62947 -40.69058 16993 ft 422 kts 221°
2026-04-29 15:55 -20.65237 -40.71057 17537 ft 424 kts 221°
2026-04-29 15:56 -20.67549 -40.73075 18069 ft 427 kts 221°
2026-04-29 15:56 -20.69868 -40.75101 18586 ft 430 kts 221°
2026-04-29 15:56 -20.72228 -40.77164 19102 ft 433 kts 221°
2026-04-29 15:56 -20.74560 -40.79205 19606 ft 436 kts 221°
2026-04-29 15:57 -20.76923 -40.81274 20101 ft 439 kts 221°
2026-04-29 15:57 -20.79312 -40.83365 20598 ft 442 kts 221°
2026-04-29 15:57 -20.81732 -40.85483 21097 ft 445 kts 221°
2026-04-29 15:57 -20.84121 -40.87575 21582 ft 448 kts 222°
2026-04-29 15:58 -20.86587 -40.89735 22068 ft 451 kts 222°
2026-04-29 15:58 -20.89032 -40.91880 22535 ft 454 kts 222°
2026-04-29 15:58 -20.91493 -40.94039 23011 ft 457 kts 222°
2026-04-29 15:58 -20.93979 -40.96220 23498 ft 459 kts 221°
2026-04-29 15:59 -20.96479 -40.98415 23977 ft 462 kts 222°
2026-04-29 15:59 -20.98972 -41.00603 24454 ft 464 kts 222°
2026-04-29 15:59 -21.01463 -41.02789 24920 ft 467 kts 222°
2026-04-29 15:59 -21.03984 -41.05003 25372 ft 469 kts 222°
2026-04-29 16:00 -21.06552 -41.07261 25826 ft 472 kts 222°
2026-04-29 16:00 -21.09138 -41.09536 26270 ft 475 kts 222°
2026-04-29 16:00 -21.11678 -41.11771 26679 ft 478 kts 222°
2026-04-29 16:00 -21.14294 -41.14075 27091 ft 481 kts 222°
2026-04-29 16:01 -21.16920 -41.16387 27518 ft 483 kts 222°
2026-04-29 16:01 -21.19526 -41.18685 27938 ft 485 kts 222°
2026-04-29 16:01 -21.22187 -41.21032 28338 ft 488 kts 222°
2026-04-29 16:01 -21.24819 -41.23352 28788 ft 489 kts 222°
2026-04-29 16:02 -21.27472 -41.25694 29389 ft 487 kts 222°
2026-04-29 16:02 -21.30105 -41.28017 30015 ft 484 kts 222°
2026-04-29 16:02 -21.32722 -41.30328 30610 ft 482 kts 222°
2026-04-29 16:02 -21.35329 -41.32632 31192 ft 480 kts 222°
2026-04-29 16:03 -21.37919 -41.34922 31771 ft 477 kts 222°
2026-04-29 16:03 -21.40485 -41.37191 32351 ft 475 kts 222°
2026-04-29 16:03 -21.43057 -41.39469 32900 ft 473 kts 222°
2026-04-29 16:03 -21.45613 -41.41732 33484 ft 471 kts 222°
2026-04-29 16:04 -21.48169 -41.43994 34087 ft 468 kts 222°
2026-04-29 16:04 -21.50713 -41.46249 34662 ft 465 kts 222°
2026-04-29 16:04 -21.53234 -41.48484 35135 ft 465 kts 222°
2026-04-29 16:04 -21.55711 -41.50680 35504 ft 465 kts 222°
2026-04-29 16:05 -21.58236 -41.52922 35827 ft 466 kts 222°
2026-04-29 16:05 -21.60769 -41.55172 36027 ft 468 kts 222°
2026-04-29 16:05 -21.63305 -41.57425 36032 ft 469 kts 222°
2026-04-29 16:06 -21.68382 -41.61939 36048 ft 469 kts 222°
2026-04-29 16:06 -21.73459 -41.66456 36071 ft 468 kts 223°
2026-04-29 16:07 -21.78554 -41.70994 36088 ft 468 kts 223°
2026-04-29 16:07 -21.83462 -41.75646 36093 ft 466 kts 226°
2026-04-29 16:08 -21.88316 -41.80494 36077 ft 473 kts 226°
2026-04-29 16:08 -21.93220 -41.85382 36063 ft 478 kts 226°
2026-04-29 16:09 -21.98186 -41.90314 36067 ft 479 kts 226°
2026-04-29 16:09 -22.03107 -41.95201 36075 ft 478 kts 226°
2026-04-29 16:10 -22.07996 -42.00059 36076 ft 478 kts 226°
2026-04-29 16:10 -22.12926 -42.04962 36074 ft 477 kts 226°
2026-04-29 16:11 -22.17815 -42.09828 36090 ft 476 kts 226°
2026-04-29 16:11 -22.22665 -42.14662 36109 ft 476 kts 226°
2026-04-29 16:12 -22.27544 -42.19529 36128 ft 476 kts 226°
2026-04-29 16:12 -22.32439 -42.24420 36129 ft 476 kts 226°
2026-04-29 16:13 -22.37320 -42.29298 36105 ft 476 kts 226°
2026-04-29 16:13 -22.42196 -42.34176 36080 ft 475 kts 226°
2026-04-29 16:14 -22.47069 -42.39056 36052 ft 475 kts 227°
2026-04-29 16:14 -22.51943 -42.43941 36028 ft 475 kts 227°
2026-04-29 16:15 -22.56817 -42.48833 36019 ft 475 kts 227°
2026-04-29 16:15 -22.61310 -42.53349 36017 ft 475 kts 227°
2026-04-29 16:16 -22.66184 -42.58251 36012 ft 475 kts 227°
2026-04-29 16:16 -22.71028 -42.63125 36008 ft 474 kts 227°
2026-04-29 16:17 -22.75888 -42.68022 36007 ft 474 kts 227°
2026-04-29 16:17 -22.80729 -42.72906 36000 ft 474 kts 227°
2026-04-29 16:18 -22.85576 -42.77802 36000 ft 474 kts 227°
2026-04-29 16:18 -22.90367 -42.82647 35992 ft 473 kts 227°
2026-04-29 16:19 -22.95185 -42.87523 35987 ft 471 kts 228°
2026-04-29 16:19 -22.99851 -42.92527 35984 ft 470 kts 230°
2026-04-29 16:20 -23.04448 -42.97627 35986 ft 471 kts 230°
2026-04-29 16:20 -23.09023 -43.02712 35984 ft 470 kts 231°
2026-04-29 16:21 -23.13606 -43.07810 35985 ft 470 kts 230°
2026-04-29 16:21 -23.18157 -43.12877 35985 ft 471 kts 230°
2026-04-29 16:22 -23.22749 -43.17994 35983 ft 471 kts 230°
2026-04-29 16:22 -23.27340 -43.23115 35984 ft 470 kts 231°
2026-04-29 16:23 -23.31883 -43.28196 35982 ft 470 kts 231°
2026-04-29 16:23 -23.36389 -43.33363 35984 ft 469 kts 232°
2026-04-29 16:24 -23.40887 -43.38548 35980 ft 469 kts 231°
2026-04-29 16:24 -23.45378 -43.43718 35981 ft 469 kts 232°
2026-04-29 16:25 -23.49862 -43.48872 35982 ft 469 kts 231°
2026-04-29 16:25 -23.54386 -43.53993 35982 ft 469 kts 231°
2026-04-29 16:26 -23.58942 -43.59155 35979 ft 471 kts 231°
2026-04-29 16:26 -23.63473 -43.64296 35978 ft 470 kts 231°
2026-04-29 16:27 -23.68140 -43.69324 35981 ft 471 kts 230°
2026-04-29 16:27 -23.72850 -43.74340 35980 ft 471 kts 230°
2026-04-29 16:28 -23.77531 -43.79352 35980 ft 472 kts 230°
2026-04-29 16:28 -23.82224 -43.84398 35981 ft 472 kts 230°
2026-04-29 16:29 -23.86879 -43.89411 35981 ft 471 kts 230°
2026-04-29 16:29 -23.91560 -43.94457 35982 ft 470 kts 230°
2026-04-29 16:30 -23.96218 -43.99488 35980 ft 469 kts 230°
2026-04-29 16:30 -24.00860 -44.04505 35981 ft 471 kts 231°
2026-04-29 16:31 -24.05500 -44.09516 35981 ft 470 kts 231°
2026-04-29 16:31 -24.10134 -44.14527 35981 ft 470 kts 231°
2026-04-29 16:32 -24.14802 -44.19585 35981 ft 470 kts 231°
2026-04-29 16:32 -24.19409 -44.24585 35981 ft 469 kts 231°
2026-04-29 16:33 -24.26354 -44.32130 35982 ft 467 kts 231°
2026-04-29 16:33 -24.30959 -44.37139 35981 ft 468 kts 231°
2026-04-29 16:34 -24.35572 -44.42166 35980 ft 468 kts 231°
2026-04-29 16:34 -24.40194 -44.47208 35982 ft 468 kts 231°
2026-04-29 16:35 -24.44785 -44.52220 35982 ft 467 kts 231°
2026-04-29 16:35 -24.49403 -44.57269 35983 ft 466 kts 231°
2026-04-29 16:36 -24.53950 -44.62316 35981 ft 465 kts 232°
2026-04-29 16:36 -24.58486 -44.67388 35984 ft 465 kts 232°
2026-04-29 16:37 -24.62994 -44.72435 35982 ft 465 kts 232°
2026-04-29 16:37 -24.66789 -44.76684 35982 ft 464 kts 233°
2026-04-29 16:38 -24.72053 -44.82585 35983 ft 464 kts 232°
2026-04-29 16:38 -24.76537 -44.87619 35982 ft 463 kts 232°
2026-04-29 16:39 -24.81041 -44.92679 35982 ft 463 kts 232°
2026-04-29 16:39 -24.85548 -44.97747 35982 ft 463 kts 233°
2026-04-29 16:40 -24.90065 -45.02831 35983 ft 462 kts 233°
2026-04-29 16:40 -24.94550 -45.07886 35977 ft 462 kts 233°
2026-04-29 16:41 -24.99010 -45.12920 35981 ft 461 kts 233°
2026-04-29 16:41 -25.03483 -45.17974 35981 ft 460 kts 233°
2026-04-29 16:42 -25.07957 -45.23033 35979 ft 459 kts 233°
2026-04-29 16:42 -25.12387 -45.28048 35979 ft 459 kts 234°
2026-04-29 16:43 -25.16847 -45.33105 35981 ft 458 kts 233°
2026-04-29 16:43 -25.21291 -45.38147 35974 ft 458 kts 233°
2026-04-29 16:44 -25.25695 -45.43152 35977 ft 456 kts 233°
2026-04-29 16:44 -25.30113 -45.48177 35982 ft 455 kts 234°
2026-04-29 16:45 -25.34509 -45.53181 35986 ft 455 kts 234°
2026-04-29 16:45 -25.38943 -45.58236 35983 ft 456 kts 234°
2026-04-29 16:46 -25.43344 -45.63259 35980 ft 455 kts 234°
2026-04-29 16:46 -25.47737 -45.68277 35986 ft 453 kts 234°
2026-04-29 16:47 -25.52105 -45.73273 35986 ft 453 kts 235°
2026-04-29 16:47 -25.56483 -45.78287 35988 ft 451 kts 234°
2026-04-29 16:48 -25.60840 -45.83284 35993 ft 451 kts 235°
2026-04-29 16:48 -25.65198 -45.88290 35990 ft 451 kts 234°
2026-04-29 16:49 -25.69562 -45.93297 35990 ft 449 kts 235°
2026-04-29 16:49 -25.73880 -45.98257 35984 ft 450 kts 235°
2026-04-29 16:50 -25.78222 -46.03258 35983 ft 449 kts 235°
2026-04-29 16:50 -25.82545 -46.08243 35984 ft 448 kts 236°
2026-04-29 16:51 -25.86875 -46.13241 35984 ft 448 kts 235°
2026-04-29 16:51 -25.91166 -46.18201 35985 ft 447 kts 235°
2026-04-29 16:52 -25.95451 -46.23154 35986 ft 445 kts 236°
2026-04-29 16:52 -25.99770 -46.28162 35986 ft 447 kts 235°
2026-04-29 16:53 -26.04041 -46.33113 35992 ft 446 kts 235°
2026-04-29 16:53 -26.08339 -46.38101 35990 ft 446 kts 236°
2026-04-29 16:54 -26.12617 -46.43075 35993 ft 447 kts 236°
2026-04-29 16:54 -26.16918 -46.48079 35994 ft 447 kts 236°
2026-04-29 16:55 -26.21209 -46.53080 35993 ft 446 kts 236°
2026-04-29 16:55 -26.25505 -46.58091 35997 ft 446 kts 236°
2026-04-29 16:56 -26.29777 -46.63077 35998 ft 446 kts 236°
2026-04-29 16:56 -26.34045 -46.68070 36005 ft 445 kts 237°
2026-04-29 16:57 -26.38305 -46.73058 35994 ft 446 kts 237°
2026-04-29 16:57 -26.42594 -46.78077 35996 ft 445 kts 237°
2026-04-29 16:58 -26.46872 -46.83092 35992 ft 444 kts 237°
2026-04-29 16:58 -26.51100 -46.88060 35990 ft 444 kts 237°
2026-04-29 16:59 -26.55367 -46.93078 35995 ft 444 kts 237°
2026-04-29 16:59 -26.59607 -46.98070 35990 ft 444 kts 237°
2026-04-29 17:00 -26.63871 -47.03114 35998 ft 445 kts 237°
2026-04-29 17:00 -26.68092 -47.08118 35999 ft 446 kts 237°
2026-04-29 17:01 -26.72332 -47.13159 36001 ft 444 kts 237°
2026-04-29 17:01 -26.76581 -47.18215 36002 ft 446 kts 237°
2026-04-29 17:02 -26.80784 -47.23232 36001 ft 444 kts 237°
2026-04-29 17:02 -26.85027 -47.28304 36005 ft 446 kts 237°
2026-04-29 17:03 -26.89257 -47.33366 35998 ft 448 kts 237°
2026-04-29 17:03 -26.93501 -47.38447 36001 ft 448 kts 237°
2026-04-29 17:04 -26.97777 -47.43573 35994 ft 448 kts 237°
2026-04-29 17:04 -27.02013 -47.48657 35997 ft 449 kts 237°
2026-04-29 17:05 -27.06293 -47.53803 36003 ft 450 kts 236°
2026-04-29 17:05 -27.10543 -47.58924 36000 ft 451 kts 237°
2026-04-29 17:06 -27.14821 -47.64080 35997 ft 454 kts 237°
2026-04-29 17:06 -27.19130 -47.69281 35998 ft 453 kts 237°
2026-04-29 17:07 -27.23415 -47.74458 35999 ft 453 kts 237°
2026-04-29 17:07 -27.27699 -47.79637 35998 ft 455 kts 237°
2026-04-29 17:08 -27.32004 -47.84854 35997 ft 456 kts 237°
2026-04-29 17:08 -27.36312 -47.90082 35994 ft 456 kts 237°
2026-04-29 17:09 -27.40627 -47.95324 35998 ft 455 kts 237°
2026-04-29 17:09 -27.44905 -48.00574 35991 ft 457 kts 237°
2026-04-29 17:10 -27.49178 -48.05818 35993 ft 458 kts 237°
2026-04-29 17:10 -27.53500 -48.11131 35993 ft 458 kts 237°
2026-04-29 17:11 -27.57774 -48.16392 35991 ft 458 kts 237°
2026-04-29 17:11 -27.62101 -48.21722 35996 ft 457 kts 237°
2026-04-29 17:12 -27.66385 -48.27008 35998 ft 459 kts 237°
2026-04-29 17:12 -27.69975 -48.31441 36005 ft 457 kts 237°
2026-04-29 17:13 -27.74955 -48.37593 36004 ft 459 kts 237°
2026-04-29 17:13 -27.79248 -48.42910 36008 ft 460 kts 237°
2026-04-29 17:14 -27.83589 -48.48292 36005 ft 461 kts 237°
2026-04-29 17:14 -27.87878 -48.53617 36009 ft 460 kts 237°
2026-04-29 17:15 -27.92197 -48.58982 36012 ft 462 kts 237°
2026-04-29 17:15 -27.96533 -48.64385 36014 ft 463 kts 237°
2026-04-29 17:16 -28.00791 -48.69685 36022 ft 465 kts 237°
2026-04-29 17:16 -28.05154 -48.75127 36022 ft 465 kts 237°
2026-04-29 17:17 -28.09481 -48.80537 36019 ft 465 kts 237°
2026-04-29 17:17 -28.13831 -48.85971 36018 ft 463 kts 237°
2026-04-29 17:18 -28.18166 -48.91405 36016 ft 464 kts 238°
2026-04-29 17:18 -28.22523 -48.96870 36009 ft 466 kts 237°
2026-04-29 17:19 -28.26884 -49.02342 36002 ft 466 kts 238°
2026-04-29 17:19 -28.31249 -49.07782 36004 ft 466 kts 237°
2026-04-29 17:20 -28.35613 -49.13187 36009 ft 466 kts 237°
2026-04-29 17:20 -28.39972 -49.18589 36013 ft 462 kts 237°
2026-04-29 17:21 -28.44323 -49.24017 36019 ft 465 kts 237°
2026-04-29 17:21 -28.48649 -49.29400 36021 ft 463 kts 238°
2026-04-29 17:22 -28.53001 -49.34823 36024 ft 464 kts 237°
2026-04-29 17:22 -28.57324 -49.40225 36022 ft 463 kts 237°
2026-04-29 17:23 -28.61656 -49.45644 36015 ft 462 kts 237°
2026-04-29 17:23 -28.65987 -49.51064 36014 ft 462 kts 238°
2026-04-29 17:24 -28.70289 -49.56467 36019 ft 460 kts 237°
2026-04-29 17:24 -28.74616 -49.61900 36016 ft 462 kts 237°
2026-04-29 17:25 -28.78947 -49.67347 36021 ft 461 kts 237°
2026-04-29 17:25 -28.83234 -49.72744 36020 ft 460 kts 237°
2026-04-29 17:26 -28.87493 -49.78174 36019 ft 456 kts 242°
2026-04-29 17:26 -28.90920 -49.84075 36039 ft 445 kts 246°
2026-04-29 17:27 -28.94228 -49.90074 36047 ft 447 kts 247°
2026-04-29 17:27 -28.97543 -49.96073 36057 ft 445 kts 246°
2026-04-29 17:28 -29.00876 -50.02069 36059 ft 449 kts 247°
2026-04-29 17:28 -29.04193 -50.08047 36058 ft 447 kts 246°
2026-04-29 17:29 -29.07509 -50.14012 36057 ft 447 kts 246°
2026-04-29 17:29 -29.10290 -50.19022 36055 ft 445 kts 245°
2026-04-29 17:30 -29.14162 -50.26003 36053 ft 445 kts 246°
2026-04-29 17:30 -29.17455 -50.31955 36047 ft 445 kts 246°
2026-04-29 17:31 -29.20744 -50.37913 36048 ft 445 kts 245°
2026-04-29 17:31 -29.24051 -50.43904 36042 ft 446 kts 245°
2026-04-29 17:32 -29.27338 -50.49871 36047 ft 443 kts 245°
2026-04-29 17:32 -29.30628 -50.55843 36041 ft 444 kts 245°
2026-04-29 17:33 -29.33935 -50.61866 36038 ft 443 kts 245°
2026-04-29 17:33 -29.37201 -50.67823 36035 ft 442 kts 245°
2026-04-29 17:34 -29.40470 -50.73780 36020 ft 442 kts 245°
2026-04-29 17:34 -29.43755 -50.79784 36015 ft 444 kts 245°
2026-04-29 17:35 -29.48652 -50.88757 36014 ft 442 kts 245°
2026-04-29 17:36 -29.51910 -50.94735 36017 ft 443 kts 244°
2026-04-29 17:36 -29.55177 -51.00730 36016 ft 443 kts 245°
2026-04-29 17:37 -29.58423 -51.06712 36015 ft 443 kts 245°
2026-04-29 17:37 -29.61670 -51.12691 36014 ft 442 kts 244°
2026-04-29 17:38 -29.64942 -51.18725 36002 ft 444 kts 245°
2026-04-29 17:38 -29.68192 -51.24741 35992 ft 443 kts 245°
2026-04-29 17:39 -29.71420 -51.30715 35992 ft 443 kts 244°
2026-04-29 17:39 -29.74666 -51.36732 35990 ft 442 kts 244°
2026-04-29 17:40 -29.77924 -51.42775 35992 ft 444 kts 244°
2026-04-29 17:40 -29.81152 -51.48787 35986 ft 442 kts 244°
2026-04-29 17:41 -29.84372 -51.54785 35978 ft 442 kts 244°
2026-04-29 17:41 -29.87615 -51.60834 35975 ft 441 kts 244°
2026-04-29 17:42 -29.90825 -51.66826 35986 ft 443 kts 244°
2026-04-29 17:42 -29.94073 -51.72902 35983 ft 441 kts 244°
2026-04-29 17:43 -29.97284 -51.78916 35982 ft 440 kts 244°
2026-04-29 17:43 -30.00482 -51.84913 35986 ft 438 kts 243°
2026-04-29 17:44 -30.03684 -51.90929 35980 ft 441 kts 243°
2026-04-29 17:44 -30.06861 -51.96914 35988 ft 440 kts 243°
2026-04-29 17:45 -30.10083 -52.02974 35986 ft 442 kts 243°
2026-04-29 17:45 -30.13276 -52.09003 35998 ft 442 kts 243°
2026-04-29 17:46 -30.16496 -52.15089 35987 ft 442 kts 243°
2026-04-29 17:46 -30.19686 -52.21130 35988 ft 441 kts 243°
2026-04-29 17:47 -30.22884 -52.27190 35991 ft 443 kts 244°
2026-04-29 17:47 -30.26090 -52.33284 35998 ft 441 kts 244°
2026-04-29 17:48 -30.29279 -52.39345 35992 ft 440 kts 244°
2026-04-29 17:48 -30.32449 -52.45381 35993 ft 440 kts 243°
2026-04-29 17:49 -30.35626 -52.51441 35997 ft 440 kts 243°
2026-04-29 17:49 -30.38796 -52.57495 36002 ft 439 kts 243°
2026-04-29 17:50 -30.41957 -52.63541 35999 ft 440 kts 244°
2026-04-29 17:50 -30.45115 -52.69591 36001 ft 439 kts 244°
2026-04-29 17:51 -30.48284 -52.75678 36004 ft 438 kts 244°
2026-04-29 17:51 -30.51435 -52.81740 36012 ft 439 kts 244°
2026-04-29 17:52 -30.54589 -52.87811 36013 ft 439 kts 244°
2026-04-29 17:52 -30.57717 -52.93836 36015 ft 439 kts 244°
2026-04-29 17:53 -30.60881 -52.99945 36010 ft 439 kts 243°
2026-04-29 17:53 -30.63996 -53.05970 36017 ft 438 kts 244°
2026-04-29 17:54 -30.67134 -53.12048 36021 ft 438 kts 244°
2026-04-29 17:54 -30.70256 -53.18107 36024 ft 438 kts 243°
2026-04-29 17:55 -30.73386 -53.24188 36021 ft 438 kts 244°
2026-04-29 17:55 -30.76496 -53.30238 36022 ft 438 kts 244°
2026-04-29 17:56 -30.79613 -53.36315 36020 ft 439 kts 244°
2026-04-29 17:56 -30.82737 -53.42416 36023 ft 438 kts 244°
2026-04-29 17:57 -30.85853 -53.48508 36025 ft 437 kts 244°
2026-04-29 17:57 -30.88957 -53.54591 36019 ft 436 kts 244°
2026-04-29 17:58 -30.92061 -53.60676 36014 ft 437 kts 244°
2026-04-29 17:58 -30.95170 -53.66782 36016 ft 437 kts 245°
2026-04-29 17:59 -30.98252 -53.72849 36011 ft 436 kts 244°
2026-04-29 17:59 -31.01914 -53.78533 36014 ft 448 kts 232°
2026-04-29 18:00 -31.06315 -53.83675 36009 ft 447 kts 231°
2026-04-29 18:00 -31.10757 -53.88847 36012 ft 449 kts 232°
2026-04-29 18:01 -31.15148 -53.93992 36017 ft 449 kts 232°
2026-04-29 18:01 -31.19544 -53.99158 36013 ft 448 kts 232°
2026-04-29 18:02 -31.23935 -54.04332 36017 ft 448 kts 232°
2026-04-29 18:02 -31.28326 -54.09517 36013 ft 448 kts 232°
2026-04-29 18:03 -31.32707 -54.14699 36019 ft 448 kts 231°
2026-04-29 18:03 -31.37074 -54.19867 36021 ft 448 kts 231°
2026-04-29 18:04 -31.41451 -54.25057 36017 ft 447 kts 231°
2026-04-29 18:04 -31.45800 -54.30220 36012 ft 447 kts 231°
2026-04-29 18:05 -31.50165 -54.35411 36010 ft 447 kts 232°
2026-04-29 18:05 -31.54534 -54.40615 36004 ft 448 kts 232°
2026-04-29 18:06 -31.58901 -54.45822 36008 ft 447 kts 232°
2026-04-29 18:06 -31.63256 -54.51022 36002 ft 448 kts 231°
2026-04-29 18:07 -31.67624 -54.56244 35995 ft 448 kts 231°
2026-04-29 18:07 -31.71976 -54.61456 36003 ft 447 kts 231°
2026-04-29 18:08 -31.76340 -54.66689 36000 ft 447 kts 232°
2026-04-29 18:08 -31.80664 -54.71882 35988 ft 447 kts 232°
2026-04-29 18:09 -31.85032 -54.77134 35987 ft 447 kts 232°
2026-04-29 18:09 -31.89371 -54.82361 35986 ft 448 kts 232°
2026-04-29 18:10 -31.93736 -54.87628 35982 ft 448 kts 232°
2026-04-29 18:10 -31.98065 -54.92856 35982 ft 447 kts 232°
2026-04-29 18:11 -32.02398 -54.98096 35993 ft 447 kts 232°
2026-04-29 18:11 -32.06747 -55.03366 35990 ft 448 kts 232°
2026-04-29 18:12 -32.11103 -55.08649 35990 ft 449 kts 232°
2026-04-29 18:12 -32.15470 -55.13953 35985 ft 450 kts 232°
2026-04-29 18:13 -32.19815 -55.19239 35986 ft 450 kts 232°
2026-04-29 18:13 -32.24161 -55.24534 35980 ft 450 kts 232°
2026-04-29 18:14 -32.28508 -55.29840 35984 ft 449 kts 232°
2026-04-29 18:14 -32.32847 -55.35142 35980 ft 449 kts 232°
2026-04-29 18:15 -32.37190 -55.40456 35975 ft 449 kts 232°
2026-04-29 18:15 -32.41518 -55.45758 35978 ft 447 kts 232°
2026-04-29 18:16 -32.45820 -55.51040 35979 ft 447 kts 232°
2026-04-29 18:16 -32.50157 -55.56373 35976 ft 448 kts 232°
2026-04-29 18:17 -32.54465 -55.61676 35977 ft 448 kts 232°
2026-04-29 18:17 -32.58775 -55.66992 35981 ft 448 kts 232°
2026-04-29 18:18 -32.63093 -55.72321 35979 ft 447 kts 232°
2026-04-29 18:18 -32.67403 -55.77652 35975 ft 448 kts 232°
2026-04-29 18:19 -32.71702 -55.82977 35973 ft 447 kts 232°
2026-04-29 18:19 -32.75993 -55.88295 35975 ft 448 kts 233°
2026-04-29 18:20 -32.80304 -55.93652 35981 ft 448 kts 232°
2026-04-29 18:20 -32.84616 -55.99018 35978 ft 448 kts 232°
2026-04-29 18:21 -32.88902 -56.04356 35980 ft 448 kts 232°
2026-04-29 18:21 -32.93217 -56.09739 35985 ft 448 kts 232°
2026-04-29 18:22 -32.97491 -56.15078 35982 ft 449 kts 232°
2026-04-29 18:22 -33.01791 -56.20461 35984 ft 448 kts 232°
2026-04-29 18:23 -33.06108 -56.25870 35979 ft 448 kts 232°
2026-04-29 18:23 -33.10397 -56.31253 35980 ft 447 kts 232°
2026-04-29 18:24 -33.14665 -56.36619 35968 ft 447 kts 232°
2026-04-29 18:24 -33.18937 -56.41999 35969 ft 447 kts 232°
2026-04-29 18:25 -33.23204 -56.47378 35964 ft 446 kts 232°
2026-04-29 18:25 -33.27477 -56.52774 35960 ft 447 kts 232°
2026-04-29 18:26 -33.31754 -56.58186 35962 ft 447 kts 233°
2026-04-29 18:26 -33.36033 -56.63606 35957 ft 447 kts 232°
2026-04-29 18:27 -33.40288 -56.69006 35961 ft 446 kts 233°
2026-04-29 18:27 -33.44525 -56.74390 35949 ft 445 kts 233°
2026-04-29 18:28 -33.48783 -56.79806 35943 ft 445 kts 233°
2026-04-29 18:28 -33.53013 -56.85199 35941 ft 445 kts 233°
2026-04-29 18:29 -33.57247 -56.90602 35937 ft 444 kts 233°
2026-04-29 18:29 -33.61468 -56.95996 35938 ft 444 kts 233°
2026-04-29 18:30 -33.65686 -57.01399 35937 ft 444 kts 233°
2026-04-29 18:30 -33.67800 -57.04109 35715 ft 444 kts 233°
2026-04-29 18:30 -33.69886 -57.06785 36043 ft 445 kts 233°
2026-04-29 18:30 -33.72018 -57.09524 35825 ft 445 kts 233°
2026-04-29 18:31 -33.74104 -57.12206 36127 ft 444 kts 233°
2026-04-29 18:31 -33.76233 -57.14943 35738 ft 443 kts 233°
2026-04-29 18:31 -33.78330 -57.17639 36033 ft 443 kts 233°
2026-04-29 18:32 -33.82527 -57.23049 35960 ft 442 kts 233°
2026-04-29 18:32 -33.88826 -57.31175 35944 ft 444 kts 233°
2026-04-29 18:33 -33.93036 -57.36622 35943 ft 444 kts 233°
2026-04-29 18:33 -33.97220 -57.42041 35944 ft 443 kts 233°
2026-04-29 18:34 -34.00733 -57.46599 35943 ft 443 kts 232°
2026-04-29 18:34 -34.05617 -57.52947 35940 ft 442 kts 232°
2026-04-29 18:35 -34.09769 -57.58349 35938 ft 442 kts 232°
2026-04-29 18:35 -34.13952 -57.63802 35939 ft 443 kts 232°
2026-04-29 18:36 -34.18017 -57.69108 35933 ft 442 kts 233°
2026-04-29 18:36 -34.22205 -57.74582 35931 ft 441 kts 233°
2026-04-29 18:37 -34.26371 -57.80039 35925 ft 443 kts 233°
2026-04-29 18:37 -34.30547 -57.85515 35926 ft 442 kts 232°
2026-04-29 18:38 -34.34703 -57.90974 35923 ft 441 kts 232°
2026-04-29 18:38 -34.38841 -57.96418 35918 ft 441 kts 233°
2026-04-29 18:39 -34.43018 -58.01909 35922 ft 441 kts 232°
2026-04-29 18:39 -34.47181 -58.07332 35682 ft 441 kts 232°
2026-04-29 18:40 -34.49282 -58.10070 35809 ft 442 kts 232°
2026-04-29 18:40 -34.51381 -58.12806 35881 ft 442 kts 232°
2026-04-29 18:40 -34.55559 -58.18260 35920 ft 441 kts 232°
2026-04-29 18:41 -34.63891 -58.29172 35916 ft 440 kts 232°
2026-04-29 18:42 -34.68029 -58.34605 35910 ft 439 kts 231°
2026-04-29 18:42 -34.72188 -58.40073 35918 ft 439 kts 231°
2026-04-29 18:43 -34.76347 -58.45549 35910 ft 439 kts 231°
2026-04-29 18:43 -34.80472 -58.51003 35920 ft 437 kts 232°
2026-04-29 18:44 -34.84314 -58.56718 35900 ft 434 kts 236°
2026-04-29 18:44 -34.87915 -58.62617 35926 ft 434 kts 237°
2026-04-29 18:45 -34.91391 -58.68346 35916 ft 433 kts 237°
2026-04-29 18:45 -34.94967 -58.74250 35904 ft 433 kts 237°
2026-04-29 18:46 -34.98543 -58.80167 35905 ft 432 kts 237°
2026-04-29 18:46 -35.02111 -58.86077 35902 ft 432 kts 237°
2026-04-29 18:47 -35.05675 -58.91990 35899 ft 432 kts 236°
2026-04-29 18:47 -35.09236 -58.97907 35902 ft 432 kts 236°
2026-04-29 18:48 -35.12683 -59.03646 35884 ft 431 kts 236°
2026-04-29 18:48 -35.16229 -59.09556 35890 ft 430 kts 237°
2026-04-29 18:49 -35.19770 -59.15474 35903 ft 430 kts 237°
2026-04-29 18:49 -35.23237 -59.21439 35911 ft 429 kts 238°
2026-04-29 18:50 -35.26663 -59.27427 35908 ft 429 kts 237°
2026-04-29 18:50 -35.30080 -59.33389 35912 ft 427 kts 237°
2026-04-29 18:51 -35.33483 -59.39326 35913 ft 427 kts 237°
2026-04-29 18:51 -35.36905 -59.45293 35915 ft 427 kts 237°
2026-04-29 18:52 -35.40370 -59.51211 35911 ft 427 kts 236°
2026-04-29 18:52 -35.43834 -59.57114 35916 ft 426 kts 237°
2026-04-29 18:53 -35.47268 -59.62983 35912 ft 425 kts 236°
2026-04-29 18:53 -35.50715 -59.68891 35919 ft 424 kts 237°